Showing default

PATHFINDER 1, 41787

Orbit data source: Space-Track

PATHFINDER 1, 41787 is a payload satellite owned by BlackSky Global (US) in SSO that was launched on Mon, 26 Sep 2016 UTC via a PSLV launch vehicle from the Sirharikota (SRI). Payload-class satellites include a variety of spacecraft equipped with specific instruments for various scientific and technological missions. These include communications satellites like Starlink; space stations such as the ISS; scientific satellites like the Hubble; Earth observation satellites from companies like Planet Labs, Umbra, and HawkEye 360; GPS; miniature CubeSats for education and research; and military/defense satellites.

Loading next visibility...
Identifier
41787, 2016-059E
Orbit
SSO
Country
Flag of USUS
Related business
Manufacturer
Spaceflight Ind
Mission
Operational Commercial Imaging
Bus & Motor
BSKY, Unknown motor
Mass
~44 kg wet, 44 kg dry
Launch date (UTC)
2016-09-26 (9 years ago)
Launch vehicle
PSLV
Launch site
Sirharikota (SRI)
Object type
Payload
Rocket body
Debris
Shape & HBR
Box, 0.5 m
Radar Cross Section
0.625 m², Medium (>0.1 m² and < 1m²)

Expand to show TLE details & history
Last TLE update: 14 hours ago

TLE from 14 hours ago
0 PATHFINDER 1
1 41787U 16059E   25310.03401214  .00001003  00000-0  18529-3 0  9996
2 41787  97.8147 314.5106 0028204 195.0294 165.0077 14.67221818486982
Epoch: 2025-11-06T00:48Z
TLE epoch observation values (Epoch: 2025-11-06T00:48:58.648Z)
Latitude
0.00005°
Longitude
-103.2319°
Altitude
692.167 km
Speed
7.5 km/s
True Right ascension
20h 58m 02s
True Declination
0° 00' 00"
Sunlit
Object was in daylight at epoch
Visualization orbit readout
Latitude
Unknown
Longitude
Unknown
Altitude
Unknown
Speed
Unknown
Apparent Right ascension
Unknown
Apparent Declination
Unknown
Sunlit
N/A
Visualization observer readout
Local Sidereal Time
10:53:17
Azimuth
Unknown
Elevation
Unknown
Doppler factor
Unknown
Orbital elements
Apogee altitude
686.875 km
Perigee altitude
647.135 km
Semi-major axis
7,045.142 km
Eccentricity
0.00282
Inclination
97.8147°
RAAN
314.5106°
Arg. of periapsis
195.0294°
True anomaly
165.09102°
Mean anomaly
165.0077°
Eccentric anomaly
165.04939°
Mean motion
3.67036 °/min
Orbital period
98.08 mins
BSTAR
0.00018529
Loading maneuver chart data...
Computing Atmospheric mass density...
Loading historical data...
Loading historical data...
Loading historical data...
Loading historical data...
Loading historical data...
Loading historical data...
Loading historical data...

Documentation

Showing up to 5 results
|